| time (UTC) | temp F | wind direction | speed MPH | gust MPH | rain 1hr in | rain 24hr in | rain mn in | humidity % | barometer mb |
| 20260901220100 | 75 | 244 | 8.0 | 16.0 | 0.00 | 0.00 | 0.00 | 71 | 1015.4 |
| 20260901214603 | 75 | 276 | 9.0 | 16.0 | 0.00 | 0.00 | 0.00 | 71 | 1015.5 |
| 20260901213059 | 75 | 360 | 7.0 | 14.0 | 0.00 | 0.00 | 0.00 | 71 | 1015.7 |
| 20260901211600 | 75 | 258 | 9.0 | 17.0 | 0.00 | 0.00 | 0.00 | 71 | 1015.8 |
| 20260901210127 | 76 | 275 | 7.0 | 15.0 | 0.00 | 0.00 | 0.00 | 70 | 1015.8 |
| 20260901204554 | 77 | 360 | 6.0 | 15.0 | 0.00 | 0.00 | 0.00 | 69 | 1015.8 |
| 20260901203052 | 76 | 273 | 6.0 | 15.0 | 0.00 | 0.00 | 0.00 | 69 | 1015.8 |
| 20260901201601 | 76 | 274 | 7.0 | 14.0 | 0.00 | 0.00 | 0.00 | 69 | 1015.8 |
| 20260901200052 | 76 | 262 | 6.0 | 14.0 | 0.00 | 0.00 | 0.00 | 70 | 1016.0 |
| 20260901194606 | 75 | 360 | 8.0 | 14.0 | 0.00 | 0.00 | 0.00 | 70 | 1016.1 |
| 20260901193105 | 76 | 259 | 7.0 | 15.0 | 0.00 | 0.00 | 0.00 | 68 | 1016.2 |
| 20260901191615 | 76 | 247 | 6.0 | 11.0 | 0.00 | 0.00 | 0.00 | 68 | 1016.2 |
| 20260901190134 | 76 | 285 | 5.0 | 13.0 | 0.00 | 0.00 | 0.00 | 71 | 1016.2 |
| 20260901184556 | 76 | 247 | 6.0 | 11.0 | 0.00 | 0.00 | 0.00 | 70 | 1016.3 |
| 20260901183059 | 76 | 307 | 4.0 | 11.0 | 0.00 | 0.00 | 0.00 | 68 | 1016.4 |
| 20260901181600 | 76 | 268 | 6.0 | 12.0 | 0.00 | 0.00 | 0.00 | 70 | 1016.5 |
| 20260901174557 | 76 | 269 | 5.0 | 11.0 | 0.00 | 0.00 | 0.00 | 68 | 1016.4 |
| 20260901173055 | 76 | 276 | 3.0 | 8.0 | 0.00 | 0.00 | 0.00 | 67 | 1016.3 |
| 20260901171633 | 76 | 291 | 3.0 | 8.0 | 0.00 | 0.00 | 0.00 | 68 | 1016.2 |
| 20260901170105 | 76 | 232 | 2.0 | 8.0 | 0.00 | 0.00 | 0.00 | 68 | 1016.2 |
| 20260901164612 | 78 | 298 | 1.0 | 4.0 | 0.00 | 0.00 | 0.00 | 66 | 1016.1 |
| 20260901163117 | 76 | 236 | 2.0 | 5.0 | 0.00 | 0.00 | 0.00 | 69 | 1016.2 |
| 20260901161603 | 74 | 304 | 2.0 | 5.0 | 0.00 | 0.00 | 0.00 | 72 | 1016.1 |
| 20260901160056 | 72 | 335 | 2.0 | 6.0 | 0.00 | 0.00 | 0.00 | 76 | 1016.0 |
| 20260901154558 | 71 | 291 | 2.0 | 5.0 | 0.00 | 0.00 | 0.00 | 75 | 1016.0 |
| 20260901153057 | 72 | 321 | 3.0 | 8.0 | 0.00 | 0.00 | 0.00 | 75 | 1015.9 |
| 20260901151601 | 72 | 0 | 1.0 | 4.0 | 0.00 | 0.00 | 0.00 | 74 | 1015.8 |
| 20260901144556 | 72 | 29 | 2.0 | 4.0 | 0.00 | 0.00 | 0.00 | 75 | 1015.6 |
| 20260901143057 | 71 | 0 | 1.0 | 3.0 | 0.00 | 0.00 | 0.00 | 78 | 1015.7 |
| 20260901141601 | 69 | 42 | 0.0 | 3.0 | 0.00 | 0.00 | 0.00 | 82 | 1015.7 |
| 20260901134602 | 66 | 38 | 1.0 | 2.0 | 0.00 | 0.00 | 0.00 | 85 | 1015.4 |
| 20260901133104 | 66 | 38 | 0.0 | 2.0 | 0.00 | 0.00 | 0.00 | 85 | 1015.2 |
| 20260901131556 | 66 | 37 | 1.0 | 4.0 | 0.00 | 0.00 | 0.00 | 85 | 1015.0 |
| 20260901130101 | 66 | 5 | 2.0 | 4.0 | 0.00 | 0.00 | 0.00 | 85 | 1014.8 |
| 20260901124554 | 65 | 327 | 1.0 | 3.0 | 0.00 | 0.00 | 0.00 | 85 | 1014.6 |
| 20260901123103 | 65 | 327 | 0.0 | 3.0 | 0.00 | 0.00 | 0.00 | 85 | 1014.5 |
| 20260901121558 | 65 | 327 | 1.0 | 4.0 | 0.00 | 0.00 | 0.00 | 84 | 1014.6 |
| 20260901120057 | 66 | 0 | 0.0 | 3.0 | 0.00 | 0.00 | 0.00 | 84 | 1014.5 |
| 20260901114554 | 66 | 307 | 0.0 | 2.0 | 0.00 | 0.00 | 0.00 | 84 | 1014.6 |
| 20260901113104 | 66 | 0 | 0.0 | 3.0 | 0.00 | 0.00 | 0.00 | 83 | 1014.6 |
| 20260901111608 | 67 | 306 | 0.0 | 4.0 | 0.00 | 0.00 | 0.00 | 83 | 1014.6 |
| 20260901104603 | 68 | 5 | 1.0 | 3.0 | 0.00 | 0.00 | 0.00 | 84 | 1014.8 |
| 20260901103057 | 68 | 27 | 0.0 | 3.0 | 0.00 | 0.00 | 0.00 | 84 | 1014.8 |
| 20260901101600 | 68 | 0 | 0.0 | 2.0 | 0.00 | 0.00 | 0.00 | 86 | 1015.0 |
| 20260901094600 | 68 | 30 | 0.0 | 2.0 | 0.00 | 0.00 | 0.00 | 86 | 1015.0 |
| 20260901093101 | 68 | 0 | 0.0 | 3.0 | 0.00 | 0.00 | 0.00 | 86 | 1015.0 |
| 20260901091604 | 68 | 32 | 1.0 | 3.0 | 0.00 | 0.00 | 0.00 | 86 | 1014.6 |
| 20260901090114 | 68 | 33 | 0.0 | 3.0 | 0.00 | 0.00 | 0.00 | 86 | 1014.8 |
| 20260901084557 | 68 | 36 | 1.0 | 3.0 | 0.00 | 0.00 | 0.00 | 86 | 1014.7 |
| 20260901083058 | 68 | 113 | 0.0 | 3.0 | 0.00 | 0.00 | 0.00 | 86 | 1015.0 |
| 20260901081605 | 68 | 0 | 0.0 | 0.0 | 0.00 | 0.00 | 0.00 | 86 | 1014.9 |
| 20260901080114 | 68 | 0 | 0.0 | 0.0 | 0.00 | 0.00 | 0.00 | 85 | 1014.9 |
| 20260901074559 | 68 | 0 | 0.0 | 0.0 | 0.00 | 0.00 | 0.00 | 85 | 1014.9 |
| 20260901073059 | 68 | 0 | 0.0 | 1.0 | 0.00 | 0.00 | 0.00 | 85 | 1015.0 |
| 20260901071605 | 68 | 155 | 0.0 | 2.0 | 0.00 | 0.00 | 0.00 | 85 | 1015.0 |
| 20260901070105 | 68 | 155 | 1.0 | 3.0 | 0.00 | 0.00 | 0.00 | 85 | 1015.0 |
| 20260901064620 | 68 | 155 | 1.0 | 3.0 | 0.00 | 0.00 | 0.00 | 85 | 1015.0 |
| 20260901063119 | 68 | 156 | 2.0 | 3.0 | 0.00 | 0.00 | 0.00 | 85 | 1014.8 |
| 20260901061604 | 68 | 157 | 1.0 | 3.0 | 0.00 | 0.00 | 0.00 | 85 | 1014.8 |
| 20260901060104 | 68 | 157 | 1.0 | 3.0 | 0.00 | 0.00 | 0.00 | 85 | 1014.8 |
| 20260901054555 | 68 | 0 | 0.0 | 0.0 | 0.00 | 0.00 | 0.00 | 86 | 1014.8 |
| 20260901053102 | 68 | 0 | 0.0 | 0.0 | 0.00 | 0.00 | 0.00 | 86 | 1014.7 |
| 20260901051600 | 68 | 0 | 0.0 | 0.0 | 0.00 | 0.00 | 0.00 | 85 | 1014.6 |
| 20260901050058 | 68 | 0 | 0.0 | 2.0 | 0.00 | 0.00 | 0.00 | 85 | 1014.6 |
| 20260901044558 | 68 | 0 | 0.0 | 2.0 | 0.00 | 0.00 | 0.00 | 85 | 1014.6 |
| 20260901043103 | 68 | 157 | 0.0 | 5.0 | 0.00 | 0.00 | 0.00 | 85 | 1014.5 |
| 20260901041557 | 68 | 158 | 1.0 | 5.0 | 0.00 | 0.00 | 0.00 | 85 | 1014.4 |
| 20260901040104 | 68 | 161 | 2.0 | 4.0 | 0.00 | 0.00 | 0.00 | 84 | 1014.4 |
| 20260901034559 | 69 | 190 | 2.0 | 4.0 | 0.00 | 0.00 | 0.00 | 84 | 1014.3 |
| 20260901033056 | 69 | 232 | 1.0 | 3.0 | 0.00 | 0.00 | 0.00 | 84 | 1014.1 |
| 20260901031602 | 69 | 0 | 0.0 | 0.0 | 0.00 | 0.00 | 0.00 | 83 | 1013.7 |
| 20260901030101 | 69 | 0 | 0.0 | 3.0 | 0.00 | 0.00 | 0.00 | 82 | 1013.7 |
| 20260901024602 | 70 | 238 | 0.0 | 4.0 | 0.00 | 0.00 | 0.00 | 81 | 1013.4 |
| 20260901023103 | 70 | 243 | 0.0 | 7.0 | 0.00 | 0.00 | 0.00 | 80 | 1013.3 |
| 20260901021602 | 71 | 250 | 1.0 | 6.0 | 0.00 | 0.00 | 0.00 | 79 | 1013.2 |
| 20260901020059 | 72 | 253 | 2.0 | 6.0 | 0.00 | 0.00 | 0.00 | 79 | 1013.0 |
| 20260901014555 | 72 | 268 | 3.0 | 8.0 | 0.00 | 0.00 | 0.00 | 78 | 1012.8 |
| 20260901013109 | 73 | 360 | 2.0 | 9.0 | 0.00 | 0.00 | 0.00 | 77 | 1013.0 |
| 20260901011556 | 74 | 255 | 3.0 | 9.0 | 0.00 | 0.00 | 0.00 | 75 | 1013.0 |
| 20260901010106 | 75 | 258 | 3.0 | 9.0 | 0.00 | 0.00 | 0.00 | 71 | 1013.1 |
| 20260901004611 | 75 | 360 | 6.0 | 11.0 | 0.00 | 0.00 | 0.00 | 72 | 1013.3 |
| 20260901003108 | 76 | 240 | 4.0 | 10.0 | 0.00 | 0.00 | 0.00 | 72 | 1013.4 |
| 20260901001609 | 75 | 252 | 6.0 | 12.0 | 0.00 | 0.00 | 0.00 | 73 | 1013.4 |
| 20260901000057 | 76 | 283 | 5.0 | 11.0 | 0.00 | 0.00 | 0.00 | 74 | 1013.4 |
| 20260831234602 | 76 | 245 | 5.0 | 12.0 | 0.00 | 0.00 | 0.00 | 73 | 1013.6 |
| 20260831233058 | 77 | 219 | 4.0 | 12.0 | 0.00 | 0.00 | 0.00 | 72 | 1013.5 |
| 20260831231615 | 76 | 252 | 6.0 | 12.0 | 0.00 | 0.00 | 0.00 | 73 | 1013.4 |
| 20260831230113 | 77 | 292 | 6.0 | 13.0 | 0.00 | 0.00 | 0.00 | 73 | 1013.6 |
| 20260831224605 | 76 | 360 | 7.0 | 13.0 | 0.00 | 0.00 | 0.00 | 73 | 1013.7 |
| 20260831223110 | 77 | 258 | 6.0 | 12.0 | 0.00 | 0.00 | 0.00 | 72 | 1013.8 |
| 20260831221605 | 77 | 242 | 7.0 | 14.0 | 0.00 | 0.00 | 0.00 | 72 | 1014.1 |